Location: Bernay
(48.6766°N, 2.9386°E)
Time: 01:57:48
(UTC+00:00)

SJ 16-02 - Pass Details

Date: 23 April 2026
Orbit: 582 x 592 km, 75.0° (Epoch: 19 May)

Event Time Altitude Azimuth Distance (km) Brightness Sun altitude
Rises 20:04:00 0° 353° (N) 2,825 5.4 -11.4°
Reaches altitude 10° 20:07:48 10° 27° (NNE) 1,916 4.0 -11.9°
Maximum altitude 20:09:14 11° 47° (NE) 1,820 3.7 -12.1°
Drops below altitude 10° 20:10:40 10° 67° (ENE) 1,911 3.6 -12.3°
Enters shadow 20:11:37 - 78° (ENE) 2,067 3.7 -12.4°
